Location: Omaha
(41.2590°N, 95.9380°W)
Time: 07:05:43
(UTC-06:00)

N. Korean satellite - Pass Details

Date: 15 October 2017
Orbit: 461 x 513 km, 97.2° (Epoch: 16 December)

Event Time Altitude Azimuth Distance (km) Brightness Sun altitude
Rises 19:35:31 0° 174° (S) 2,542 10.2 -10.7°
Reaches altitude 10° 19:37:37 10° 177° (S) 1,658 9.3 -11.1°
Maximum altitude 19:41:09 64° 260° (W) 535 7.0 -11.8°
Drops below altitude 10° 19:44:39 10° 342° (NNW) 1,643 9.5 -12.5°
Sets 19:46:42 0° 345° (NNW) 2,518 10.4 -12.8°
